Время (UTC), дата Ветер
(°,м/с) 
Видим.   Явления Облачность Т
(°С)
Тd
(°С)
f(%) Тe
(°С)
Pmin
(гПа)
dP
(гПа)
Po
(мм)
O2
(г/м3)
Тmin Tmax R s Состояние
почвы
00 01.09.15 330 (СЗ) 8000 м    9/0 средняя 
[Ac trans]
+18.6 +12.4 67 +24  1016.6  -0.3  756  283           
03 01.09.15 350 (С) 10 км    8/0 средняя 
[Ac trans]
+17.8 +10 60 +20  1016.8  0.1  756  284  +17.6         
06 01.09.15 320 (СЗ) 10 км    4/0 средняя, верхняя 
[Ac trans|Ci fib]
+25.3 +6.4 30 +25  1016.7  0.1  756  278           
09 01.09.15 280 (З) 10 км    5/1 1000 м верхняя 
[Cu hum|Ci fib]
+27.1 +6.1 26 +27  1016  -0.5  756  276           
12 01.09.15 330 (СЗ) 10 км    5/1 1000 м верхняя 
[Cu hum|Ci fib]
+29 +5.1 22 +29  1014.8  -1.2  755  274           
15 01.09.15 260 (З) 10 км    8/0 средняя, верхняя 
[Ac trans|Ci fib]
+27.7 +6.8 27 +28  1014.8  755  275    +29.6       
18 01.09.15 290 (З) 8000 м    4/0 средняя 
[Ac trans]
+23.1 +16.6 67 +34  1015.3  0.3  755  277           
21 01.09.15 тихо ()   8000 м    4/0 средняя 
[Ac trans]
+20.5 +16.7 79 +32  1015.1  -0.3  755  279           
00 02.09.15 140 (ЮВ) 8000 м    4/0 средняя 
[Ac trans]
+18.4 +14.8 80 +28  1014  -1.1  754  282           
03 02.09.15 230 (ЮЗ) 10 км    4/0 средняя 
[Ac trans]
+18.4 +14.6 79 +27  1013  -0.8  753  281  +18         
06 02.09.15 260 (З) 10 км    9/4 600 м кучево-дожд., средняя 
[Cb calv|Ac trans]
+22.5 +15.9 66 +33  1013.3  0.3  754  277           
09 02.09.15 250 (З) 6{11}  10 км  {ливн. осадки}  5/1 600 м кучево-дожд., средняя 
[Cb calv|Ac trans]
+26 +14.7 50 +34  1013  -0.1  753  274           
12 02.09.15 260 (З) 6{11}  10 км  {ливн. осадки}  ясно 
+29.7 +11.6 33 +33  1011.3  -1.5  752  271           
15 02.09.15 260 (З) 7-12{14}  10 км    ясно 
+29 +12.6 36 +34  1010.5  -0.8  752  271    +30.5  0.0     
18 02.09.15 250 (З) 4{14}  8000 м    1/0 средняя 
[Ac trans]
+26 +14.1 48 +33  1011.2  0.6  752  274           
21 02.09.15 260 (З) 8000 м    1/0 средняя 
[Ac trans]
+24.1 +17.1 65 +37  1010.8  -0.3  752  275           
00 03.09.15 260 (З) 8000 м    ясно 
+22.9 +18.6 77 +38  1010.6  -0.1  752  275           
03 03.09.15 260 (З) 10 км    5/0 средняя, верхняя 
[Ac trans|Ci fib]
+21.7 +18.2 80 +36  1010.5  -0.1  751  276  +21.7         
06 03.09.15 250 (З) 10 км    3/0 средняя 
[Ac trans]
+26 +16.6 56 +37  1010.6  0.2  752  273  +21.3         
09 03.09.15 260 (З) 10 км    ясно 
+31.3 +11.9 30 +35  1010  -0.5  751  269           
12 03.09.15 260 (З) 6{11}  10 км    ясно 
+32.7 +12.6 29 +37  1009.5  -0.4  751  268           
15 03.09.15 260 (З) 10 км    ясно 
+30.1 +12.1 33 +34  1009.3  -0.3  751  270    +33.4       
18 03.09.15 270 (З) 8000 м    ясно 
+27.2 +13.3 42 +33  1010.4  0.9  751  273           
21 03.09.15 270 (З) 8000 м    ясно 
+24.3 +15.6 58 +34  1010.4  751  275           
00 04.09.15 310 (СЗ) 8000 м    4/0 средняя, верхняя 
[Ac trans|Ci fib]
+22.5 +15.1 63 +31  1010.7  0.2  752  277           
03 04.09.15 330 (СЗ) 10 км    5/0 средняя 
[Ac trans]
+20.6 +16.6 78 +32  1011  0.1  752  278  +20.6         
06 04.09.15 360 (С) 10 км    6/0 средняя 
[Ac trans]
+29.4 +14.7 41 +37  1011.6  0.8  752  271  +20.1         
09 04.09.15 140 (ЮВ) 10 км    6/0 средняя, верхняя 
[Ac trans|Ci fib]
+32.9 +14.5 33 +41  1011.7  0.2  753  268           
12 04.09.15 290 (З) 10 км    4/1 1000 м кучево-дожд., верхняя 
[Cb calv|Ci fib]
+34.9 +10.6 23 +37  1011.3  -0.4  752  267           
15 04.09.15 030 (СВ) 10 км    4/3 1000 м кучево-дожд., верхняя 
[Cb calv|Ci fib]
+32.2 +10.2 26 +34  1011.2  -0.1  752  269    +35.5       
18 04.09.15 360 (С) 8000 м    4/0 средняя, верхняя 
[Ac trans|Ci fib]
+29.3 +11.3 33 +32  1011.7  0.4  752  272           
21 04.09.15 060 (СВ) 8000 м    4/0 верхняя 
[Ci fib]
+24.5 +11.3 44 +27  1012  753  276           
00 05.09.15 090 (В) 8000 м    3/0 верхняя 
[Ci fib]
+22.5 +11.5 50 +26  1012.1  0.1  753  278           
03 05.09.15 070 (В) 10 км    4/0 средняя, верхняя 
[Ac trans|Ci fib]
+22.2 +11.3 50 +25  1012.5  0.3  753  278  +21.5         
06 05.09.15 080 (В) 10 км    4/0 средняя 
[Ac trans]
+28.5 +12.7 38 +33  1013  0.6  753  272           
09 05.09.15 210 (ЮЗ) 10 км    6/0 средняя, верхняя 
[Ac trans|Ci fib]
+34.5 +11.5 25 +38  1012.8  753  267           
12 05.09.15 180 (Ю) 10 км    5/3 1000 м средняя 
[Cu med, cong|Ac trans]
+37.4 +7.5 16 +37  1011.4  -1.2  752  265           
15 05.09.15 270 (З) 10 км    3/0 средняя 
[Ac trans]
+34 +11.7 26 +37  1011.2  -0.3  752  267    +37.5       
18 05.09.15 350 (С) 8000 м    3/0 средняя 
[Ac trans]
+26.7 +12.6 42 +31  1011.9  0.5  753  274           
21 05.09.15 300 (СЗ) 8000 м    3/0 средняя 
[Ac trans]
+22.9 +13.5 55 +29  1011.8  -0.1  752  277           
00 06.09.15 тихо ()   8000 м    3/0 средняя 
[Ac trans]
+22.3 +11.6 51 +26  1010.9  -0.8  752  278           
03 06.09.15 220 (ЮЗ) 10 км    3/0 верхняя 
[Ci fib]
+19.3 +16.3 83 +31  1011.7  0.6  752  280  +19         
06 06.09.15 230 (ЮЗ) 10 км    ясно 
+25.3 +20.7 76 +45  1012.2  0.6  753  272           
09 06.09.15 250 (З) 10 км    ясно 
+30.9 +17.9 46 +45  1011.4  -0.5  752  268           
12 06.09.15 250 (З) 10 км    ясно 
+33.5 +15.7 34 +43  1009.8  -1.5  751  266           
15 06.09.15 280 (З) 10 км    ясно 
+30 +17.9 48 +44  1009.1  -0.8  751  269    +33.6       
18 06.09.15 270 (З) 8000 м    ясно 
+25.7 +19.8 70 +44  1009.5  0.3  751  272           
21 06.09.15 260 (З) 8000 м    ясно 
+24.7 +20.1 76 +44  1009.2  -0.3  751  272           
00 07.09.15 230 (ЮЗ) 8000 м    9/5 500 м кучево-дожд., средняя 
[Cb calv|Ac trans]
+22.3 +19.4 84 +40  1008.9  -0.3  750  275           
03 07.09.15 230 (ЮЗ) 10 км    8/8 240 м 
[Sc]
+21.9 +19.7 87 +40  1009.2  0.2  750  275  +21.9         
06 07.09.15 250 (З) 10 км    8/5 500 м средняя 
[Sc|Ac trans]
+25.6 +20.8 75 +46  1009.9  0.8  751  272           
09 07.09.15 290 (З) 10 км    9/1 600 м средняя, верхняя 
[Cu hum|Ac trans|Ci fib]
+27.1 +12.7 41 +32  1010.6  0.6  752  273           
12 07.09.15 270 (З) 10 км    8/1 600 м кучево-дожд., средняя, верхняя 
[Cb calv|Ac trans|Ci fib]
+25.4 +9 35 +25  1012.2  1.4  753  276           
15 07.09.15 260 (З) 10 км    9/1 600 м кучево-дожд., средняя, верхняя 
[Cb calv|Ac trans|Ci fib]
+23.6 +14.3 56 +31  1012.9  0.6  753  276    +28.2       
18 07.09.15 270 (З) 8000 м  слаб. ливневой дождь  9/5 1000 м кучево-дожд., средняя 
[Cb calv|Ac trans]
+21 +15.6 71 +31  1014.1  1.1  754  279           
21 07.09.15 330 (СЗ) 8000 м  {ливн. осадки}  9/1 600 м кучево-дожд., средняя 
[Cb calv|Ac trans]
+20.7 +11.1 54 +23  1014  -0.1  754  280           
00 08.09.15 340 (С) 8000 м  слаб. ливневой дождь  9/4 600 м кучево-дожд., средняя 
[Cb calv|Ac trans]
+18.9 +8.1 49 +20  1014.8  0.8  755  283           
03 08.09.15 340 (С) 10 км  {ливн. осадки}  8/0 средняя 
[Ac trans]
+17 +7.3 53 +17  1015.3  0.4  755  285  +17    0.0     
06 08.09.15 020 (С) 10 км    5/0 средняя, верхняя 
[Ac trans|Ci fib]
+20.8 +7.9 43 +21  1015.7  0.5  755  281  +16.4         
09 08.09.15 310 (СЗ) 10 км    8/0 средняя, верхняя 
[Ac trans|Ci fib]
+23.2 +6.1 33 +23  1015.3  -0.3  755  279           
12 08.09.15 270 (З) 10 км    9/0 средняя, верхняя 
[Ac trans|Ci fib]
+24.1 +5.2 29 +24  1015.4  0.1  755  279           
15 08.09.15 210 (ЮЗ) 10 км    9/1 1000 м кучево-дожд., средняя, верхняя 
[Cb calv|Ac trans|Ci fib]
+23.3 +5.8 32 +23  1015.2  -0.1  755  279    +24.6       
18 08.09.15 280 (З) 8000 м    6/0 средняя, верхняя 
[Ac trans|Ci fib]
+20.8 +8.3 45 +21  1016.6  1.2  756  282           
21 08.09.15 330 (СЗ) 8000 м    4/0 средняя 
[Ac trans]
+17.1 +10.9 67 +21  1016.9  0.2  756  285           
00 09.09.15 030 (СВ) 8000 м    5/0 средняя, верхняя 
[Ac trans|Ci fib]
+15.3 +5.1 51 +17  1017.5  0.4  756  288           
03 09.09.15 070 (В) 10 км    8/0 средняя 
[Ac trans]
+14 +4.2 52 +15  1018.6  0.9  757  290  +13         
06 09.09.15 090 (В) 10 км    8/0 средняя 
[Ac trans]
+20.3 +5.1 37 +20  1019.3  758  283           
09 09.09.15 090 (В) 10 км    3/0 средняя 
[Ac trans]
+24.8 +4 26 +25  1019.1  758  279           
12 09.09.15 120 (ЮВ) 10 км    4/4 1000 м 
[Cu hum]
+25.9 +2.8 22 +26  1019.2  758  279           
15 09.09.15 130 (ЮВ) 10 км    4/1 1000 м средняя 
[Cu med, cong|Ac trans]
+24.6 +3.2 25 +25  1019.3  758  280    +26.2       
18 09.09.15 020 (С) 8000 м    5/0 средняя 
[Ac trans]
+19.1 +4.5 38 +21  1020.5  759  285           
21 09.09.15 тихо ()   8000 м    3/0 средняя 
[Ac trans]
+17.1 +7.5 53 +17  1020.6  759  286           
00 10.09.15 090 (В) 8000 м    3/0 средняя 
[Ac trans]
+14.9 +8.6 66 +16  1020.6  759  288           
03 10.09.15 070 (В) 4000 м    3/0 средняя 
[Ac trans]
+13.6 +9.4 76 +14  1021.7  0.9  760  290  +13.1         
06 10.09.15 070 (В) 10 км    8/0 средняя, верхняя 
[Ac trans|Ci fib]
+20.3 +12.4 60 +24  1022.1  0.5  760  283           
09 10.09.15 030 (СВ) 10 км    6/4 1200 м верхняя 
[Cu med, cong|Ci fib]
+24.9 +12.3 45 +29  1021.4  -0.4  760  278           
12 10.09.15 120 (ЮВ) 10 км    6/5 1300 м средняя 
[Cu med, cong|Ac trans]
+26.8 +8 30 +27  1020.7  -0.6  759  277           
15 10.09.15 080 (В) 10 км    9/1 1000 м средняя, верхняя 
[Cu med, cong|Ac trans|Ci fib]
+24.7 +8 34 +25  1020.7  759  279    +27       
18 10.09.15 040 (СВ) 8000 м  дым  9/0 средняя, верхняя 
[Ac trans|Ci fib]
+23.2 +5.1 31 +23  1021.8  760  281           
21 10.09.15 040 (СВ) 8000 м    9/0 средняя, верхняя 
[Ac trans|Ci]
+20.7 +5.8 38 +21  1021.6  -0.3  760  284           
00 11.09.15 030 (СВ) 8000 м    8/0 средняя, верхняя 
[Ac trans|Ci]
+19.5 +7.1 45 +20  1022.5  0.9  760  285           
03 11.09.15 070 (В) 10 км    9/0 средняя, верхняя 
[Ac trans|Ci fib]
+17.4 +8.2 55 +18  1022.9  0.2  761  287  +17.4         
06 11.09.15 070 (В) 10 км    9/0 средняя 
[Ac trans]
+19.8 +11.8 60 +23  1023.1  0.2  761  284           
09 11.09.15 070 (В) 6{10}  10 км    9/1 1000 м средняя, верхняя 
[Cu hum|Ac trans|Ci fib]
+25.1 +10.5 40 +27  1022.8  761  279           
12 11.09.15 070 (В) 6{11}  10 км    6/6 1300 м 
[Cu med, cong]
+25.6 +9.2 35 +26  1022.3  -0.5  760  279           
15 11.09.15 070 (В) 6{10}  10 км    6/3 1000 м средняя 
[Cu med, cong|Ac trans]
+23.9 +10 41 +25  1022.6  0.1  760  280    +26.8       
18 11.09.15 070 (В) 7-10{10}  8000 м    8/3 1500 м кучево-дожд., средняя 
[Cb calv|Ac trans]
+21.6 +9.5 46 +22  1023.7  0.9  761  283           
21 11.09.15 060 (СВ) 7{11}  8000 м    4/0 средняя 
[Ac trans]
+17.7 +5.3 44 +17  1024.7  0.9  762  287           
00 12.09.15 060 (СВ) 7{11}  8000 м    ясно 
+15 +5.5 53 +14  1024.5  -0.2  762  290           
03 12.09.15 060 (СВ) 6{11}  10 км    1/0 средняя 
[Ac trans]
+13.1 +6.5 64 +12  1024.8  0.2  762  292  +13.1         
06 12.09.15 080 (В) 9-11{11}  10 км    1/0 средняя 
[Ac trans]
+17.2 +8.3 56 +17  1025.2  0.5  762  288  +13         
09 12.09.15 100 (В) 9-13{13}  10 км    3/0 средняя 
[Ac trans]
+22.4 +6.8 36 +22  1024.5  -0.7  762  283           
12 12.09.15 100 (В) 8-11{14}  10 км    8/5 1200 м средняя 
[Cu hum|Ac trans]
+22.6 +7 37 +23  1023.6  -0.7  761  282           
15 12.09.15 100 (В) 7-11{12}  10 км    8/4 1000 м кучево-дожд., средняя 
[Cb calv|Ac trans]
+21.2 +5.5 36 +21  1023.4  -0.1  761  284    +24.5       
18 12.09.15 080 (В) 9-12{13}  8000 м    8/0 средняя 
[Ac trans]
+17.8 +7.3 50 +17  1024.3  0.7  762  287           
21 12.09.15 070 (В) 8-12{15}  8000 м    8/0 средняя 
[Ac trans]
+15.9 +5.4 50 +15  1024.5  0.1  762  289           
00 13.09.15 070 (В) 8-11{15}  8000 м    9/3 600 м кучево-дожд., средняя 
[Cb calv|Ac trans]
+15.1 +5.1 51 +14  1024.5  -0.1  762  290           
03 13.09.15 070 (В) 10-14{14}  10 км    9/0 средняя 
[Ac trans]
+14.6 +5.4 54 +13  1023.9  -0.6  761  290  +14.6         
06 13.09.15 080 (В) 8-12{15}  10 км    9/0 средняя 
[Ac trans]
+15.4 +6.4 55 +14  1024.1  761  289  +14.4         
09 13.09.15 090 (В) 9-13{15}  10 км    10/0 средняя 
[Ac und]
+19 +6.3 43 +19  1023  -0.7  761  286           
12 13.09.15 080 (В) 9-12{16}  10 км    10/0 
[Sc]
+18.2 +6.2 45 +18  1022.9  -0.2  761  286           
15 13.09.15 090 (В) 7-10{13}  10 км    10/0 
[Sc]
+18.6 +7.2 47 +19  1022.4  -0.4  760  286    +19.2       
18 13.09.15 090 (В) 7-10{12}  8000 м    10/3 1000 м кучево-дожд., средняя 
[Cb calv|Ac und]
+17.5 +8.1 54 +17  1023.3  0.6  761  287           
21 13.09.15 080 (В) 5{10}  8000 м    10/1 1000 м кучево-дожд., средняя 
[Cb calv|Ac und]
+16.5 +10.9 69 +18  1022.9  -0.3  761  287           
00 14.09.15 090 (В) 6{10}  8000 м    9/0 средняя 
[Ac trans]
+16.1 +10.1 68 +17  1021.7  -1.1  760  287           
03 14.09.15 100 (В) 6{11}  10 км    9/5 700 м кучево-дожд., средняя 
[Cb calv|Ac trans]
+15.2 +10.4 73 +16  1021.6  760  288  +15.3         
06 14.09.15 080 (В) 8-11{11}  10 км  {ливн. осадки}  10/4 300 м кучево-дожд., средняя 
[Cb calv|Ac und]
+15.2 +11.3 78 +17  1021.2  -0.5  759  288  +14.3         
09 14.09.15 090 (В) 9-13{13}  10 км    10/4 600 м кучево-дожд., средняя 
[Cb calv|Ac und]
+17.8 +10.1 61 +18  1020.1  -0.9  758  285           
12 14.09.15 080 (В) 7-10{13}  10 км    9/4 600 м средняя 
[Sc|Ac trans]
+19.9 +10.5 55 +22  1019.3  -0.8  758  283           
15 14.09.15 020 (С) 5{10}  10 км    9/4 600 м кучево-дожд., средняя 
[Cb calv|Ac trans]
+18.9 +8.4 50 +19  1018.3  -1  757  284    +20.3       
18 14.09.15 020 (С) 6{10}  8000 м    9/5 930 м средняя 
[Sc|Ac trans]
+16.8 +9.2 61 +17  1018.2  -0.1  757  286           
21 14.09.15 040 (СВ) 5{10}  8000 м  {дождь}  9/9 800 м 
[Sc]
+15.5 +10.6 73 +17  1017.7  -0.5  757  287           
00 15.09.15 050 (СВ) 4{10}  8000 м  {дождь}  6/6 700 м 
[Sc]
+14.3 +12.1 87 +18  1017.5  -0.1  756  287           
03 15.09.15 060 (СВ) 10 км    10/5 930 м средняя 
[Sc|Ac und]
+15.6 +12.8 83 +21  1018.5  0.9  757  286  +14.2    0.0     
06 15.09.15 060 (СВ) 10 км    8/4 300 м средняя 
[Sc|Ac trans]
+16.5 +13 80 +22  1019.1  0.5  758  285           
09 15.09.15 060 (СВ) 10 км    10/6 630 м средняя 
[Sc|Ac trans]
+18.7 +13.3 71 +26  1019.1  0.1  758  283           
12 15.09.15 010 (С) 10 км    9/4 600 м средняя 
[Sc|Ac trans]
+19.9 +13.1 65 +26  1019.1  758  282           
15 15.09.15 040 (СВ) 10 км    9/0 средняя 
[Ac trans]
+18.5 +12.4 68 +23  1019.2  0.1  758  284    +20.1       
18 15.09.15 040 (СВ) 8000 м    8/0 средняя 
[Ac trans]
+16.1 +12.4 79 +20  1020.2  0.8  758  286           
21 15.09.15 040 (СВ) 8000 м  дымка  8/5 540 м средняя 
[Sc|Ac trans]
+15.5 +13 85 +21  1019.9  -0.3  758  287           
00 16.09.15 030 (СВ) 8000 м    9/6 600 м средняя 
[Sc|Ac trans]
+16.3 +12 76 +20  1019.8  758  286           
03 16.09.15 040 (СВ) 10 км    10/6 750 м кучево-дожд., средняя 
[Cb calv|Ac und]
+16 +11.1 73 +18  1020.5  0.7  759  287  +15.1         
06 16.09.15 060 (СВ) 10 км    9/3 600 м кучево-дожд., средняя 
[Cb calv|Ac trans]
+18.1 +9.9 59 +19  1021.6  1.1  760  285           
09 16.09.15 070 (В) 10 км    5/5 1200 м 
[Cu med, cong]
+22.7 +9.8 44 +23  1021.2  -0.3  759  281           
12 16.09.15 070 (В) 10 км    4/4 1000 м 
[Cu hum]
+24.1 +8.6 37 +24  1020.6  -0.5  759  280           
15 16.09.15 100 (В) 10 км    3/0 средняя 
[Ac trans]
+22.2 +8.8 42 +22  1020.8  0.1  759  281    +24.3       
18 16.09.15 080 (В) 8000 м    3/0 средняя 
[Ac trans]
+17.3 +7.2 51 +18  1021.8  0.7  760  287           
21 16.09.15 070 (В) 8000 м    ясно 
+15.7 +5.3 50 +16  1021.9  0.1  760  289           
00 17.09.15 060 (СВ) 8000 м    ясно 
+13.6 +5.4 58 +14  1021.9  -0.1  760  291           
03 17.09.15 070 (В) 10 км    5/0 средняя, верхняя 
[Ac trans|Ci fib]
+12.1 +4.9 61 +12  1022.2  0.3  760  292  +11.2         
06 17.09.15 080 (В) 10 км    6/0 верхняя 
[Ci fib]
+19.9 +6.3 41 +21  1022.9  0.9  761  285           
09 17.09.15 100 (В) 10 км    6/0 средняя, верхняя 
[Ac trans|Ci fib]
+24.6 +5.3 29 +25  1022.4  -0.3  760  280           
12 17.09.15 110 (В) 5{10}  10 км    3/0 верхняя 
[Ci fib]
+25.9 +3.9 24 +26  1021.2  -0.9  759  279           
15 17.09.15 070 (В) 10 км    4/0 верхняя 
[Ci fib]
+23.5 +3.7 28 +24  1021.2  -0.2  759  281    +26.2       
18 17.09.15 090 (В) 8000 м    4/0 верхняя 
[Ci fib]
+20 +5.3 38 +20  1021.5  0.1  760  284           
21 17.09.15 080 (В) 3200 м  дым  4/0 верхняя 
[Ci fib]
+16.7 +7.4 54 +17  1022.2  0.5  760  287           
00 18.09.15 080 (В) 4900 м  дым  4/0 верхняя 
[Ci fib]
+12.8 +7.3 69 +13  1022.7  0.3  760  291           
03 18.09.15 070 (В) 8000 м    3/0 верхняя 
[Ci fib]
+12.1 +7.6 74 +12  1023  0.4  761  292  +11.5         
06 18.09.15 090 (В) 10 км    4/0 верхняя 
[Ci fib]
+18.6 +8.5 52 +19  1023.4  0.5  761  286           
09 18.09.15 120 (ЮВ) 10 км    6/0 средняя, верхняя 
[Ac trans|Ci fib]
+25.5 +4.8 26 +26  1022.5  -0.7  760  280           
12 18.09.15 120 (ЮВ) 6{11}  10 км    4/0 средняя, верхняя 
[Ac trans|Ci fib]
+27.4 +2.9 21 +27  1021.8  -0.5  760  278           
15 18.09.15 100 (В) 10 км    1/0 средняя 
[Ac trans]
+24.3 +3.1 25 +24  1021.7  -0.3  760  281    +27.5       
18 18.09.15 110 (В) 8000 м    ясно 
+17.8 +2.7 36 +18  1022.5  0.6  760  287           
21 18.09.15 080 (В) 5000 м  дым  ясно 
+17 +5 45 +17  1022.9  0.3  761  288           
00 19.09.15 080 (В) 8000 м    ясно 
+13.7 +6.7 63 +13  1023.3  0.3  761  291           
03 19.09.15 080 (В) 8000 м  дым  ясно 
+13 +6.4 64 +12  1023.5  0.1  761  292  +13.1         
06 19.09.15 090 (В) 10 км    ясно 
+19.5 +6.3 42 +20  1023.7  0.3  761  285           
09 19.09.15 090 (В) 8-11  10 км    ясно 
+25.5 +5.7 28 +26  1022.2  -1.2  760  279           
12 19.09.15 100 (В) 8-11{12}  10 км    ясно 
+27.5 +3.2 21 +28  1020.7  -1.4  759  277           
15 19.09.15 090 (В) 6{11}  10 км    ясно 
+24.1 +3.4 26 +24  1020.2  -0.7  759  280    +27.6       
18 19.09.15 100 (В) 4{11}  8000 м    ясно 
+18.9 +5.6 42 +19  1020.1  -0.1  758  285           
21 19.09.15 080 (В) 8000 м    ясно 
+17 +8.3 57 +17  1019.8  -0.4  758  286           
00 20.09.15 080 (В) 7000 м  дым  ясно 
+15.9 +8.6 62 +15  1018.9  -0.7  758  287           
03 20.09.15 080 (В) 7000 м  дым  ясно 
+13.8 +9.4 75 +13  1018.9  -0.1  757  289  +13.9         
06 20.09.15 090 (В) 10 км    ясно 
+18.7 +12.7 68 +24  1017.8  -0.9  757  283  +13.6         
09 20.09.15 100 (В) 9-12{12}  10 км    ясно 
+25.5 +10.5 39 +27  1015.7  -1.8  755  277           
12 20.09.15 100 (В) 8-11{13}  10 км    ясно 
+27 +11.8 39 +31  1013.9  -1.7  754  274           
15 20.09.15 100 (В) 6{12}  10 км    ясно 
+24.7 +12.6 47 +29  1013.5  -0.5  754  276    +27.4       
18 20.09.15 090 (В) 5{12}  8000 м    ясно 
+21.3 +13.8 62 +28  1013.2  -0.3  753  279           
21 20.09.15 090 (В) 8000 м    ясно 
+19.1 +13.1 68 +24  1012.3  -0.9  753  281           
00 21.09.15 080 (В) 8000 м    ясно 
+17.1 +13.9 81 +24  1011.6  -0.7  752  282           
03 21.09.15 070 (В) 3100 м  дымка  4/1 600 м кучево-дожд., средняя, верхняя 
[Cb calv|Ac trans|Ci fib]
+15.8 +13.8 88 +22  1011.6  752  284  +15.6         
06 21.09.15 090 (В) 6{10}  10 км    9/9 270 м 
[St]
+18.2 +15.4 84 +27  1011.6  0.1  752  281           
09 21.09.15 100 (В) 7{12}  10 км    8/0 верхняя 
[Ci fib]
+25.3 +16 56 +36  1010.1  -1.3  751  274           
12 21.09.15 090 (В) 7-10{12}  10 км    8/0 верхняя 
[Ci fib]
+27.7 +14 43 +35  1009.5  -0.5  751  272           
15 21.09.15 080 (В) 6{11}  10 км    4/0 средняя, верхняя 
[Ac trans|Ci fib]
+25.2 +14 50 +32  1009.4  -0.1  751  274    +28       
18 21.09.15 090 (В) 5{11}  8000 м    3/0 средняя 
[Ac trans]
+22.3 +15.1 64 +31  1010.2  0.7  751  277           
21 21.09.15 080 (В) 8000 м    3/0 средняя 
[Ac trans]
+19.8 +14.5 71 +28  1010.2  -0.1  751  279           
00 22.09.15 080 (В) 8000 м    3/0 средняя 
[Ac trans]
+18.3 +14.7 80 +26  1010.7  0.6  752  281           
03 22.09.15 080 (В) 8000 м    5/0 средняя 
[Ac trans]
+17.4 +14.9 85 +25  1011.1  0.2  752  282  +17.4         
06 22.09.15 080 (В) 10 км    9/0 средняя, верхняя 
[Ac trans|Ci fib]
+19 +15.6 81 +29  1012.3  1.3  753  280           
09 22.09.15 080 (В) 10 км    9/3 600 м кучево-дожд., средняя, верхняя 
[Cb calv|Ac trans|Ci fib]
+24 +16.5 63 +35  1012.1  753  275           
12 22.09.15 080 (В) 10 км    8/0 средняя, верхняя 
[Ac trans|Ci fib]
+27.5 +15.6 48 +37  1011.5  -0.4  752  272           
15 22.09.15 060 (СВ) 10 км    5/0 средняя 
[Ac trans]
+24.9 +14.6 53 +33  1011.8  0.3  752  275    +27.8       
18 22.09.15 060 (СВ) 8000 м    5/0 средняя 
[Ac trans]
+21.4 +14.5 65 +29  1012.3  0.3  753  278           
21 22.09.15 040 (СВ) 4000 м    ясно 
+19.5 +13.1 66 +25  1012.5  753  281           
00 23.09.15 080 (В) 8000 м    ясно 
+18.9 +11 60 +21  1012.9  0.4  753  282           
03 23.09.15 080 (В) 8000 м    4/0 средняя 
[Ac trans]
+16.5 +11.9 74 +20  1013.4  0.2  753  284  +16.5         
06 23.09.15 070 (В) 10 км    ясно 
+19.8 +14.5 71 +28  1014.3  754  280  +16         
09 23.09.15 080 (В) 7-10{10}  10 км    ясно 
+26.9 +16.5 53 +38  1014  754  273           
12 23.09.15 100 (В) 8-12{12}  10 км    ясно 
+29.8 +8.7 27 +30  1014  -0.1  754  273           
15 23.09.15 080 (В) 4{12}  10 км    ясно 
+27.6 +7.7 28 +28  1013.9  754  275    +30.2       
18 23.09.15 080 (В) 3{12}  8000 м    ясно 
+22.3 +8.6 41 +22  1015.4  1.3  755  280           
21 23.09.15 080 (В) 8000 м    ясно 
+20.9 +12.4 58 +25  1015.7  0.2  755  280           
00 24.09.15 080 (В) 7{10}  8000 м    ясно 
+19.1 +14.5 75 +27  1016.3  0.4  756  282           
03 24.09.15 080 (В) 6{10}  8000 м    ясно 
+16.5 +13.6 83 +22  1017.5  1.2  757  285  +16.5         
06 24.09.15 090 (В) 8-11{12}  10 км    ясно 
+19.7 +12.2 62 +24  1018.6  0.9  757  282  +16.3         
09 24.09.15 090 (В) 10-13{13}  10 км    ясно 
+27.1 +11.9 39 +31  1017.3  -0.7  757  275           
12 24.09.15 090 (В) 10-14{16}  10 км    ясно 
+30.4 +8.8 26 +30  1017  -0.3  756  273           
15 24.09.15 100 (В) 7{15}  10 км    ясно 
+27.2 +7 28 +27  1017.6  0.5  757  276    +30.6       
18 24.09.15 090 (В) 5{15}  3700 м  дым  ясно 
+21.8 +3.5 30 +22  1018.6  0.8  757  282           
21 24.09.15 070 (В) 7{10}  8000 м    ясно 
+19.1 +2.8 34 +19  1018.3  -0.4  757  285           
00 25.09.15 080 (В) 8{10}  8000 м    ясно 
+16.4 +5.5 48 +16  1018.4  757  287           
03 25.09.15 080 (В) 9-12{12}  8000 м    1/0 средняя 
[Ac trans]
+14.6 +7.4 62 +13  1018.6  0.1  757  288  +14.6         
15 25.09.15 100 (В) 7-10{15}  10 км    5/0 средняя 
[Ac trans]
+25.3 +2.9 23 +25  1017.8  0.2  757  279    +28.3       
18 25.09.15 090 (В) 5{15}  8000 м    ясно 
+21.8 +6.2 36 +22  1018.4  0.5  757  282           
21 25.09.15 080 (В) 8000 м    4/0 средняя 
[Ac trans]
+19 +6.2 43 +19  1018.6  757  284           
00 26.09.15 080 (В) 5000 м  дым  4/0 средняя 
[Ac trans]
+16.6 +6.6 52 +16  1018.7  757  287           
03 26.09.15 080 (В) 8000 м    5/0 средняя 
[Ac trans]
+14.4 +7.5 63 +14  1019.3  0.5  758  289  +14.4         
12 26.09.15 110 (В) 10-14{15}  10 км    ясно 
+27.7 -1.2 15 +28  1017.3  -1.1  757  277           
18 26.09.15 080 (В) 4{14}  2800 м  дым  ясно 
+20.8 +4.4 34 +21  1018.2  0.4  757  283           
21 26.09.15 090 (В) 1900 м  дым  ясно 
+18.7 +3.8 37 +19  1018.5  0.2  757  285           
00 27.09.15 080 (В) 2600 м  дым  ясно 
+16.4 +4.1 44 +16  1018.5  757  287           
03 27.09.15 080 (В) 8000 м    ясно 
+14.9 +5.5 53 +14  1018.9  0.3  758  289  +14.8         
06 27.09.15 100 (В) 9-12{13}  10 км    ясно 
+19.1 +7 45 +19  1018.8  -0.1  758  284  +14.7         
09 27.09.15 100 (В) 12-16{17}  10 км    ясно 
+26.6 +3.8 23 +27  1017.5  -1  757  277           
12 27.09.15 110 (В) 11-14{16}  10 км    ясно 
+28.8 +4.9 22 +29  1016.7  -0.8  756  275           
15 27.09.15 090 (В) 5{14}  10 км    ясно 
+25.8 +5.5 27 +26  1017.1  0.2  756  278    +29.2       
18 27.09.15 100 (В) 5{14}  8000 м    ясно 
+22.1 +5.6 34 +22  1017.9  0.6  757  281           
21 27.09.15 090 (В) 8000 м    ясно 
+19.4 +5.1 39 +20  1018.1  0.1  757  284           
00 28.09.15 080 (В) 8000 м    ясно 
+16.7 +5.9 49 +17  1018.4  0.1  757  287           
03 28.09.15 090 (В) 8000 м    ясно 
+14.2 +6 58 +13  1018.7  0.3  757  289  +14.2         
06 28.09.15 090 (В) 10 км    ясно 
+18.6 +6.2 44 +19  1019.2  0.5  758  285           
09 28.09.15 100 (В) 8-11{10}  10 км    ясно 
+26.6 +5.3 26 +27  1017.7  -1.2  757  277           
12 28.09.15 120 (ЮВ) 8-12{16}  10 км    ясно 
+29.2 +4 20 +29  1016.2  -1.4  756  275           
15 28.09.15 080 (В) 4{14}  10 км    ясно 
+25.4 +6.4 30 +25  1016.1  -0.1  756  278    +29.6       
18 28.09.15 090 (В) 5{14}  8000 м    ясно 
+22.7 +7.1 37 +23  1016.2  756  280           
21 28.09.15 090 (В) 7000 м  дым  ясно 
+20.6 +8.3 45 +21  1016.3  756  282           
00 29.09.15 070 (В) 8000 м    ясно 
+17.3 +10.1 63 +18  1016.6  0.1  756  285           
03 29.09.15 080 (В) 8000 м    1/0 средняя 
[Ac trans]
+15.1 +8.9 66 +14  1017  0.3  756  287  +15.1         
06 29.09.15 080 (В) 7-10{10}  10 км    ясно 
+17.2 +8.7 57 +17  1017.3  0.3  756  285  +14.4         
09 29.09.15 080 (В) 7{10}  10 км    ясно 
+25.3 +8.4 34 +25  1016  -1  756  277           
12 29.09.15 090 (В) 10-13{15}  10 км    3/0 верхняя 
[Ci fib]
+28.7 +5.1 22 +29  1013.6  -2.2  754  274           
15 29.09.15 090 (В) 3{14}  10 км    4/0 средняя 
[Ac trans]
+24.3 +9.2 38 +24  1013.6  -0.1  754  277    +28.9       
18 29.09.15 080 (В) 7-10{14}  8000 м    8/0 средняя, верхняя 
[Ac trans|Ci fib]
+23.8 +6.8 34 +24  1013.6  754  278           
21 29.09.15 080 (В) 5{10}  4000 м  дым  5/0 средняя, верхняя 
[Ac trans|Ci fib]
+20.8 +11.7 56 +24  1013.8  0.1  754  280           
00 30.09.15 080 (В) 6{10}  7000 м  дым  5/0 средняя, верхняя 
[Ac trans|Ci fib]
+18.2 +14.7 80 +26  1014.8  0.8  755  282           
03 30.09.15 090 (В) 8-10{11}  8000 м    6/0 средняя, верхняя 
[Ac trans|Ci fib]
+16.5 +12.9 79 +21  1015.6  0.8  755  284  +16.5         
06 30.09.15 100 (В) 7{11}  10 км    5/0 средняя, верхняя 
[Ac trans|Ci fib]
+18.9 +12.5 66 +23  1016.5  0.8  756  282  +16.1         
09 30.09.15 090 (В) 7-10{10}  10 км    8/0 средняя 
[Ac trans]
+22.2 +12 52 +26  1017.2  0.6  756  280           
12 30.09.15 100 (В) 8-11{13}  10 км    8/0 средняя 
[Ac trans]
+26.2 +3.5 23 +26  1017.1  756  278           
15 30.09.15 070 (В) 6{11}  10 км    6/0 средняя, верхняя 
[Ac trans|Ci fib]
+22.8 +1.3 24 +23  1017.6  0.4  757  281    +26.4       
18 30.09.15 070 (В) 7-10{11}  8000 м    3/0 средняя 
[Ac trans]
+20.9 -2.2 21 +21  1019  1.2  758  284           
21 30.09.15 080 (В) 6{11}  8000 м    4/0 средняя, верхняя 
[Ac trans|Ci fib]
+19.3 -1.2 25 +19  1019.6  0.6  758  285           
00 01.10.15 040 (СВ) 4{11}  8000 м    4/0 средняя, верхняя 
[Ac trans|Ci fib]
+15.4 +1.9 40 +15  1020  0.2  758  289           
03 01.10.15 040 (СВ) 8000 м    1/0 средняя 
[Ac trans]
+12.7 +5.8 63 +12  1020.8  0.7  759  291  +12.7         
06 01.10.15 040 (СВ) 10 км    ясно 
+14.1 +5.8 57 +13  1022  1.1  760  290  +12.4         
09 01.10.15 030 (СВ) 5{10}  10 км    ясно 
+19.5 +5.9 41 +20  1021.8  760  285           
12 01.10.15 050 (СВ) 6{10}  10 км    4/0 верхняя 
[Ci fib]
+23 +5.3 32 +23  1021.3  -0.3  759  281           
15 01.10.15 040 (СВ) 10 км    6/0 верхняя 
[Ci fib]
+20.1 +7 43 +20  1021.9  0.5  760  284    +23.2       
18 01.10.15 050 (СВ) 5{10}  8000 м    6/0 верхняя 
[Ci fib]
+15.4 +6 53 +15  1023.4  1.1  761  289           
21 01.10.15 050 (СВ) 8000 м    5/0 верхняя 
[Ci fib]
+12.4 +5.6 63 +12  1023.6  0.2  761  292           
00 02.10.15 040 (СВ) 8000 м    5/0 средняя, верхняя 
[Ac trans|Ci fib]
+12.1 +4.4 59 +12  1024.2  0.5  761  293           
03 02.10.15 020 (С) 8000 м    3/0 средняя 
[Ac trans]
+10.6 +2.9 59 +11  1024.1  -0.1  761  295  +9.1         
06 02.10.15 020 (С) 10 км    4/0 верхняя 
[Ci fib]
+15.1 +3.8 47 +16  1024.7  0.6  762  290           
09 02.10.15 330 (СЗ) 10 км    3/0 верхняя 
[Ci fib]
+19.5 +1.4 30 +20  1024  -0.5  761  286           
12 02.10.15 290 (З) 10 км    1/0 средняя 
[Ac trans]
+22.1 -4.2 17 +22  1022.4  -1.5  760  284           
18 02.10.15 270 (З) 8000 м    4/0 верхняя 
[Ci fib]
+15.7 +8.8 63 +16  1022.4  0.3  760  288           
21 02.10.15 280 (З) 8000 м    ясно 
+13.3 +5.5 59 +14  1022.1  -0.3  760  291           
00 03.10.15 280 (З) 8000 м    ясно 
+12.6 +1.1 45 +13  1021.9  -0.2  760  292           
Время (UTC), дата Ветер
(°,м/с) 
Видим.   Явления Облачность Т
(°С)
Тd
(°С)
f(%) Тe
(°С)
Pmin
(гПа)
dP
(гПа)
Po
(мм)
O2
(г/м3)
Тmin Tmax R s Состояние
почвы